Date String (YYYY-MM-DD hh:mm:ss) UTC,Instrument flags,absolute air pressure of the measurement (hPa),sample flow rate (lpm),inlet stack bypass flow (lpm),air temperature of the measurement (°C),ambient temperature measured by the external sensor (°C),aerosol sample conditioner tube jacket temperature (°C),OPC LED temperature (°C),internal box temperature (°C),relative humidity of the measurement (%),span deviation,mass concentration of particles derived from Lorenz-Mie calculation of OPC scattering (μg/m³),mass concentration of particles derived from Lorenz-Mie calculation of OPC scattering (μg/m³),mass concentration of particles derived from Lorenz-Mie calculation of OPC scattering (μg/m³)
DateTimeUTC,F1_M11,P_M11,Q1_M11,Q2_M11,T1_M11,T2_M11,T3_M11,T4_M11,T5_M11,U1_M11,ZSPAN_M11,X2_M11,X0_M11,X1_M11
2024-03-24 01:00:00,SystemResetWarning,0815.1,4.99,000.00,025.6,024.8,000.0,034.0,027.4,10.8,0000.0,0002.52,0006.76,0001.34
2024-03-24 01:01:00,SystemResetWarning,0815.1,4.99,000.00,025.6,024.8,000.0,034.0,027.4,10.8,0000.0,0002.45,0006.73,0001.34
2024-03-24 01:02:00,SystemResetWarning,0815.1,5.01,000.00,025.6,024.8,000.0,034.1,027.4,10.8,0000.0,0002.41,0006.67,0001.33
2024-03-24 01:03:00,SystemResetWarning,0815.2,5.01,000.00,025.6,024.8,000.0,034.1,027.4,10.8,0000.0,0002.45,0006.56,0001.33
2024-03-24 01:04:00,SystemResetWarning,0815.1,5.00,000.00,025.6,024.8,000.0,034.1,027.4,11.9,0000.0,0002.45,0006.45,0001.33
2024-03-24 01:05:00,SystemResetWarning,0815.1,4.99,000.00,025.6,024.8,000.0,034.1,027.4,12.0,0000.0,0002.39,0005.54,0001.32
2024-03-24 01:06:00,SystemResetWarning,0815.1,5.00,000.00,025.6,024.8,000.0,034.1,027.4,12.1,0000.0,0002.35,0005.22,0001.31
2024-03-24 01:07:00,SystemResetWarning,0815.1,5.00,000.00,025.6,024.8,000.0,034.1,027.4,12.1,0000.0,0002.33,0005.20,0001.31
2024-03-24 01:08:00,SystemResetWarning,0815.1,4.99,000.00,025.6,024.8,000.0,034.1,027.4,12.1,0000.0,0002.31,0005.12,0001.32
2024-03-24 01:09:00,SystemResetWarning,0815.0,5.00,000.00,025.6,024.8,000.0,034.1,027.4,12.1,0000.0,0002.33,0005.02,0001.35
2024-03-24 01:10:00,SystemResetWarning,0815.0,5.00,000.00,025.6,024.8,000.0,034.1,027.4,12.1,0000.0,0002.33,0004.89,0001.38
2024-03-24 01:11:00,SystemResetWarning,0815.0,5.00,000.00,025.6,024.8,000.0,034.1,027.4,12.2,0000.0,0002.38,0004.95,0001.41
2024-03-24 01:12:00,SystemResetWarning,0815.0,5.01,000.00,025.6,024.8,000.0,034.1,027.4,12.2,0000.0,0002.46,0005.20,0001.43
2024-03-24 01:13:00,SystemResetWarning,0814.9,5.00,000.00,025.6,024.8,000.0,034.1,027.4,12.2,0000.0,0002.46,0005.12,0001.44
2024-03-24 01:14:00,SystemResetWarning,0814.9,5.00,000.00,025.6,024.8,000.0,034.1,027.4,12.7,0000.0,0002.45,0005.31,0001.44
2024-03-24 01:15:00,SystemResetWarning,0814.9,4.99,000.00,025.6,024.8,000.0,034.1,027.4,13.0,0000.0,0002.44,0006.21,0001.44
2024-03-24 01:16:00,SystemResetWarning,0814.9,5.00,000.00,025.6,024.8,000.0,034.1,027.4,13.2,0000.0,0002.51,0006.09,0001.46
2024-03-24 01:17:00,SystemResetWarning,0814.9,4.99,000.00,025.6,024.8,000.0,034.1,027.4,13.2,0000.0,0002.52,0006.33,0001.48
2024-03-24 01:18:00,SystemResetWarning,0814.9,5.01,000.00,025.6,024.8,000.0,034.1,027.4,13.4,0000.0,0002.54,0006.68,0001.49
2024-03-24 01:19:00,SystemResetWarning,0814.9,5.01,000.00,025.6,024.8,000.0,034.1,027.4,13.4,0000.0,0002.58,0007.20,0001.49
2024-03-24 01:20:00,SystemResetWarning,0814.9,5.01,000.00,025.6,024.8,000.0,034.1,027.5,13.3,0000.0,0002.65,0007.51,0001.49
2024-03-24 01:21:00,SystemResetWarning,0814.9,4.99,000.00,025.6,024.8,000.0,034.1,027.5,13.4,0000.0,0002.64,0007.65,0001.46
2024-03-24 01:22:00,SystemResetWarning,0814.9,4.99,000.00,025.6,024.8,000.0,034.1,027.5,13.4,0000.0,0002.64,0007.86,0001.45
2024-03-24 01:23:00,SystemResetWarning,0814.9,5.01,000.00,025.6,024.8,000.0,034.1,027.5,13.3,0000.0,0002.57,0007.86,0001.44
2024-03-24 01:24:00,SystemResetWarning,0815.0,5.01,000.00,025.6,024.8,000.0,034.1,027.5,13.3,0000.0,0002.55,0008.76,0001.45
2024-03-24 01:25:00,SystemResetWarning,0815.0,5.00,000.00,025.6,024.8,000.0,034.1,027.5,13.3,0000.0,0002.53,0008.59,0001.47
2024-03-24 01:26:00,SystemResetWarning,0815.0,5.00,000.00,025.6,024.8,000.0,034.1,027.4,13.4,0000.0,0002.53,0008.28,0001.46
2024-03-24 01:27:00,SystemResetWarning,0815.0,5.00,000.00,025.6,024.8,000.0,034.1,027.4,13.5,0000.0,0002.52,0008.37,0001.46
2024-03-24 01:28:00,SystemResetWarning,0815.0,5.00,000.00,025.6,024.8,000.0,034.1,027.4,13.6,0000.0,0002.51,0008.16,0001.45
2024-03-24 01:29:00,SystemResetWarning,0815.0,5.01,000.00,025.6,024.8,000.0,034.1,027.4,13.6,0000.0,0002.52,0008.01,0001.46
2024-03-24 01:30:00,SystemResetWarning,0815.0,4.98,000.00,025.6,024.8,000.0,034.2,027.4,13.5,0000.0,0002.51,0007.70,0001.46
2024-03-24 01:31:00,SystemResetWarning,0815.0,5.00,000.00,025.6,024.8,000.0,034.2,027.4,13.5,0000.0,0002.44,0007.45,0001.46
2024-03-24 01:32:00,SystemResetWarning,0815.0,5.01,000.00,025.6,024.8,000.0,034.2,027.5,13.5,0000.0,0002.45,0007.29,0001.48
2024-03-24 01:33:00,SystemResetWarning,0814.9,5.00,000.00,025.6,024.8,000.0,034.2,027.5,13.5,0000.0,0002.44,0007.00,0001.49
2024-03-24 01:34:00,SystemResetWarning,0815.0,5.00,000.00,025.6,024.7,000.0,034.2,027.5,13.4,0000.0,0002.44,0006.88,0001.48
2024-03-24 01:35:00,SystemResetWarning,0814.9,4.99,000.00,025.6,024.8,000.0,034.2,027.4,13.4,0000.0,0002.48,0005.83,0001.48
2024-03-24 01:36:00,SystemResetWarning,0814.9,5.00,000.00,025.6,024.8,000.0,034.2,027.5,13.5,0000.0,0002.50,0006.12,0001.48
2024-03-24 01:37:00,SystemResetWarning,0814.9,5.00,000.00,025.6,024.8,000.0,034.2,027.5,13.4,0000.0,0002.52,0006.00,0001.49
2024-03-24 01:38:00,SystemResetWarning,0814.9,5.00,000.00,025.6,024.8,000.0,034.2,027.5,13.3,0000.0,0002.56,0005.94,0001.50
2024-03-24 01:39:00,SystemResetWarning,0814.9,5.00,000.00,025.6,024.8,000.0,034.2,027.5,13.1,0000.0,0002.60,0006.03,0001.53
2024-03-24 01:40:00,SystemResetWarning,0814.9,5.00,000.00,025.6,024.8,000.0,034.2,027.5,13.1,0000.0,0002.60,0005.98,0001.55
2024-03-24 01:41:00,SystemResetWarning,0814.9,4.99,000.00,025.6,024.8,000.0,034.2,027.5,13.0,0000.0,0002.61,0006.12,0001.56
2024-03-24 01:42:00,SystemResetWarning,0814.9,4.99,000.00,025.6,024.8,000.0,034.2,027.5,13.0,0000.0,0002.59,0006.29,0001.57
2024-03-24 01:43:00,SystemResetWarning,0814.9,5.01,000.00,025.6,024.8,000.0,034.2,027.5,13.0,0000.0,0002.58,0006.27,0001.59
2024-03-24 01:44:00,SystemResetWarning,0814.9,5.00,000.00,025.6,024.8,000.0,034.2,027.5,13.0,0000.0,0002.60,0006.18,0001.60
2024-03-24 01:45:00,SystemResetWarning,0814.9,5.01,000.00,025.6,024.8,000.0,034.2,027.5,12.9,0000.0,0002.63,0005.94,0001.63
2024-03-24 01:46:00,SystemResetWarning,0814.9,4.99,000.00,025.6,024.8,000.0,034.2,027.5,12.9,0000.0,0002.64,0005.71,0001.65
2024-03-24 01:47:00,SystemResetWarning,0814.9,4.99,000.00,025.6,024.8,000.0,034.2,027.5,12.9,0000.0,0002.67,0005.60,0001.68
2024-03-24 01:48:00,SystemResetWarning,0814.9,5.01,000.00,025.6,024.8,000.0,034.2,027.5,12.9,0000.0,0002.67,0007.00,0001.70
2024-03-24 01:49:00,SystemResetWarning,0814.9,5.01,000.00,025.6,024.8,000.0,034.2,027.5,13.0,0000.0,0002.66,0006.91,0001.70
2024-03-24 01:50:00,SystemResetWarning,0814.9,4.99,000.00,025.6,024.7,000.0,034.2,027.5,13.0,0000.0,0002.64,0007.29,0001.70
2024-03-24 01:51:00,SystemResetWarning,0814.9,5.00,000.00,025.6,024.7,000.0,034.2,027.4,13.1,0000.0,0002.66,0007.64,0001.71
2024-03-24 01:52:00,SystemResetWarning,0814.9,5.01,000.00,025.6,024.7,000.0,034.2,027.5,13.1,0000.0,0002.63,0007.75,0001.73
2024-03-24 01:53:00,SystemResetWarning,0814.9,5.00,000.00,025.6,024.7,000.0,034.2,027.5,13.1,0000.0,0002.68,0007.67,0001.76
2024-03-24 01:54:00,SystemResetWarning,0814.9,5.00,000.00,025.6,024.7,000.0,034.2,027.4,13.2,0000.0,0002.74,0007.78,0001.79
2024-03-24 01:55:00,SystemResetWarning,0814.9,5.00,000.00,025.6,024.7,000.0,034.2,027.5,13.2,0000.0,0002.85,0007.93,0001.82
2024-03-24 01:56:00,SystemResetWarning,0814.9,5.00,000.00,025.6,024.7,000.0,034.2,027.5,13.2,0000.0,0002.91,0008.18,0001.85
2024-03-24 01:57:00,SystemResetWarning,0814.9,5.00,000.00,025.6,024.7,000.0,034.2,027.5,13.2,0000.0,0003.00,0008.46,0001.89
2024-03-24 01:58:00,SystemResetWarning,0814.9,4.99,000.00,025.6,024.7,000.0,034.2,027.5,13.2,0000.0,0003.10,0008.57,0001.93
2024-03-24 01:59:00,SystemResetWarning,0814.9,4.98,000.00,025.6,024.7,000.0,034.2,027.5,13.2,0000.0,0003.11,0007.64,0001.97
